Weather History for KCMD - April, 2014

Change the Weather History Date:

Saturday, April 5, 2014

  Actual Average Record
Temperature  
Mean Temperature 48 °F -  
Max Temperature 58 °F - - ()
Min Temperature 39 °F - - ()
Degree Days  
Heating Degree Days 16    
Moisture  
Dew Point 36 °F    
Average Humidity 62    
Maximum Humidity 85    
Minimum Humidity 41    
Precipitation  
Precipitation 0.00 in - - ()
Sea Level Pressure  
Sea Level Pressure 30.10 in    
Wind  
Wind Speed 5 mph (North)    
Max Wind Speed 16 mph    
Max Gust Speed 21 mph    
Visibility 10 miles    
Events      
Averages and records for this station are not official NWS values.
T = Trace of Precipitation, MM = Missing Value Source: NWS Daily Summary

Daily Weather History Graph

Daily Weather History Graph

Search for Another Location

Airport or City:

Trip Planner

Search our weather history database for the weather conditions in past years. The results will help you decide how hot, cold, wet, or windy it might be!

Date:

Astronomy

Apr. 05, 2014 Rise Set
Actual Time 6:29 AM CDT 7:11 PM CDT
Civil Twilight 6:03 AM CDT 7:36 PM CDT
Nautical Twilight 5:34 AM CDT 8:06 PM CDT
Astronomical Twilight 5:03 AM CDT 8:37 PM CDT
Moon 10:45 AM CDT (4/5) 12:11 AM CDT (4/5)
Length of Visible Light 13h 32m
Length of Day
12h 42m
Waxing Crescent, 34% of the Moon is Illuminated
Apr 5
Waxing Crescent
Apr 7
First Quarter
Apr 15
Full
Apr 22
Last Quarter
Apr 29
New

Hourly Weather History & Observations

Time (CDT) Temp. Windchill Dew Point Humidity Pressure Visibility Wind Dir Wind Speed Gust Speed Precip Events Conditions
12:15 AM 49.6 °F - 41.0 °F 72% 30.07 in 10.0 mi NNW 4.6 mph - N/A   Clear
12:35 AM 48.7 °F - 40.6 °F 74% 30.08 in 10.0 mi NNW 3.5 mph - N/A   Clear
12:55 AM 48.0 °F - 40.3 °F 75% 30.08 in 10.0 mi NNW 4.6 mph - N/A   Clear
1:15 AM 47.7 °F - 39.9 °F 75% 30.08 in 10.0 mi North 3.5 mph - N/A   Clear
1:35 AM 47.3 °F - 39.6 °F 74% 30.08 in 10.0 mi North 4.6 mph - N/A   Clear
1:55 AM 46.6 °F - 39.2 °F 75% 30.08 in 10.0 mi NNW 3.5 mph - N/A   Clear
2:15 AM 45.9 °F - 39.2 °F 78% 30.08 in 10.0 mi Calm Calm - N/A   Clear
2:35 AM 45.5 °F - 38.8 °F 78% 30.08 in 10.0 mi Calm Calm - N/A   Clear
2:55 AM 45.0 °F 43.5 °F 38.3 °F 77% 30.07 in 10.0 mi North 3.5 mph - N/A   Clear
3:15 AM 44.8 °F - 38.1 °F 77% 30.07 in 10.0 mi Calm Calm - N/A   Clear
3:35 AM 44.1 °F 41.5 °F 38.3 °F 80% 30.07 in 10.0 mi NNW 4.6 mph - N/A   Clear
3:55 AM 43.9 °F - 38.7 °F 82% 30.07 in 10.0 mi Calm Calm - N/A   Clear
4:15 AM 43.3 °F 41.7 °F 38.3 °F 82% 30.07 in 10.0 mi North 3.5 mph - N/A   Clear
4:35 AM 42.6 °F 39.9 °F 38.3 °F 85% 30.08 in 10.0 mi North 4.6 mph - N/A   Clear
4:55 AM 42.3 °F 37.9 °F 37.9 °F 85% 30.08 in 10.0 mi North 6.9 mph - N/A   Clear
5:15 AM 41.9 °F 36.3 °F 37.2 °F 83% 30.08 in 10.0 mi North 9.2 mph - N/A   Clear
5:35 AM 41.4 °F 35.2 °F 36.1 °F 82% 30.09 in 10.0 mi North 10.4 mph - N/A   Clear
5:55 AM 40.8 °F 36.2 °F 35.1 °F 80% 30.10 in 10.0 mi North 6.9 mph - N/A   Clear
6:15 AM 40.3 °F 37.1 °F 34.3 °F 79% 30.11 in 10.0 mi North 4.6 mph - N/A   Clear
6:35 AM 39.7 °F 35.6 °F 33.6 °F 79% 30.11 in 10.0 mi North 5.8 mph - N/A   Clear
6:55 AM 39.6 °F 35.4 °F 33.1 °F 78% 30.11 in 10.0 mi North 5.8 mph - N/A   Clear
7:15 AM 40.5 °F 35.8 °F 33.1 °F 75% 30.12 in 10.0 mi NNE 6.9 mph - N/A   Clear
7:35 AM 41.5 °F 37.1 °F 33.8 °F 74% 30.13 in 10.0 mi NNE 6.9 mph - N/A   Clear
7:55 AM 42.4 °F 36.5 °F 34.0 °F 72% 30.13 in 10.0 mi NNE 10.4 mph - N/A   Clear
8:15 AM 43.5 °F 37.5 °F 34.3 °F 70% 30.13 in 10.0 mi NNE 11.5 mph - N/A   Clear
8:35 AM 44.4 °F 38.6 °F 34.2 °F 67% 30.13 in 10.0 mi NNE 11.5 mph 19.6 mph N/A   Clear
8:55 AM 45.3 °F 39.3 °F 34.0 °F 65% 30.14 in 10.0 mi NNE 12.7 mph 20.7 mph N/A   Clear
9:15 AM 46.6 °F - 34.0 °F 62% 30.14 in 10.0 mi NNE 16.1 mph - N/A   Clear
9:35 AM 47.5 °F - 34.3 °F 60% 30.14 in 10.0 mi North 11.5 mph - N/A   Clear
9:55 AM 48.2 °F - 34.2 °F 58% 30.16 in 10.0 mi NNE 9.2 mph - N/A   Clear
10:15 AM 49.1 °F - 34.2 °F 56% 30.16 in 10.0 mi North 10.4 mph - N/A   Clear
10:35 AM 49.8 °F - 33.6 °F 54% 30.16 in 10.0 mi North 6.9 mph - N/A   Clear
10:55 AM 50.2 °F - 33.8 °F 53% 30.16 in 10.0 mi NNE 6.9 mph - N/A   Clear
11:15 AM 50.4 °F - 33.6 °F 53% 30.16 in 10.0 mi Calm Calm - N/A   Clear
11:35 AM 51.6 °F - 33.8 °F 51% 30.16 in 10.0 mi NNW 9.2 mph - N/A   Clear
11:55 AM 52.3 °F - 34.0 °F 50% 30.15 in 10.0 mi North 8.1 mph 17.3 mph N/A   Clear
12:15 PM 52.9 °F - 34.3 °F 49% 30.14 in 10.0 mi WNW 6.9 mph - N/A   Clear
12:35 PM 54.0 °F - 34.9 °F 49% 30.13 in 10.0 mi North 8.1 mph - N/A   Clear
12:55 PM 55.2 °F - 34.2 °F 45% 30.13 in 10.0 mi NE 8.1 mph - N/A   Clear
1:15 PM 55.6 °F - 34.3 °F 45% 30.12 in 10.0 mi NNW 4.6 mph - N/A   Clear
1:35 PM 56.7 °F - 34.0 °F 42% 30.12 in 10.0 mi WNW 5.8 mph - N/A   Clear
1:55 PM 57.4 °F - 34.3 °F 42% 30.12 in 10.0 mi NNE 3.5 mph - N/A   Clear
2:15 PM 57.6 °F - 34.9 °F 43% 30.11 in 10.0 mi NW 5.8 mph - N/A   Clear
2:35 PM 57.7 °F - 34.7 °F 42% 30.11 in 10.0 mi North 5.8 mph - N/A   Clear
2:55 PM 57.6 °F - 34.0 °F 41% 30.10 in 10.0 mi NNW 4.6 mph - N/A   Clear
3:15 PM 58.3 °F - 34.7 °F 41% 30.09 in 10.0 mi NNW 9.2 mph - N/A   Clear
3:35 PM 57.7 °F - 34.7 °F 42% 30.08 in 10.0 mi North 8.1 mph - N/A   Clear
3:55 PM 57.6 °F - 35.2 °F 43% 30.08 in 10.0 mi NNW 6.9 mph - N/A   Clear
4:15 PM 57.4 °F - 35.1 °F 43% 30.08 in 10.0 mi NW 3.5 mph - N/A   Clear
4:35 PM 56.8 °F - 35.8 °F 45% 30.07 in 10.0 mi North 5.8 mph - N/A   Clear
4:55 PM 56.5 °F - 36.1 °F 47% 30.08 in 10.0 mi NNW 5.8 mph - N/A   Clear
5:15 PM 55.6 °F - 35.6 °F 47% 30.08 in 10.0 mi NNW 5.8 mph - N/A   Clear
5:35 PM 55.4 °F - 36.0 °F 48% 30.09 in 10.0 mi North 5.8 mph - N/A   Clear
5:55 PM 54.7 °F - 35.2 °F 48% 30.09 in 10.0 mi NNW 4.6 mph - N/A   Clear
6:15 PM 54.1 °F - 35.2 °F 49% 30.09 in 10.0 mi North 5.8 mph - N/A   Clear
6:35 PM 53.6 °F - 35.2 °F 50% 30.09 in 10.0 mi North 3.5 mph - N/A   Clear
6:55 PM 52.7 °F - 35.1 °F 51% 30.08 in 10.0 mi North 3.5 mph - N/A   Clear
7:35 PM 50.9 °F - 35.2 °F 55% 30.08 in 10.0 mi North 3.5 mph - N/A   Clear
7:55 PM 50.2 °F - 35.6 °F 57% 30.08 in 10.0 mi North 3.5 mph - N/A   Clear
8:15 PM 50.0 °F - 35.4 °F 57% 30.09 in 10.0 mi North 3.5 mph - N/A   Clear
8:35 PM 49.8 °F - 35.4 °F 58% 30.09 in 10.0 mi Calm Calm - N/A   Clear
8:55 PM 49.1 °F - 36.9 °F 63% 30.09 in 10.0 mi Calm Calm - N/A   Clear
9:15 PM 48.2 °F - 37.8 °F 67% 30.10 in 10.0 mi Calm Calm - N/A   Clear
9:35 PM 47.7 °F - 38.5 °F 70% 30.11 in 10.0 mi Calm Calm - N/A   Clear
9:55 PM 46.9 °F - 39.9 °F 77% 30.10 in 10.0 mi Calm Calm - N/A   Clear
10:15 PM 46.9 °F - 39.0 °F 74% 30.08 in 10.0 mi NNE 5.8 mph - N/A   Clear
10:35 PM 48.2 °F - 37.2 °F 66% 30.10 in 10.0 mi Calm Calm - N/A   Clear
10:55 PM 48.7 °F - 35.6 °F 60% 30.10 in 10.0 mi Calm Calm - N/A   Clear
11:15 PM 48.4 °F - 35.8 °F 62% 30.09 in 10.0 mi NNW 3.5 mph - N/A   Clear
11:35 PM 48.6 °F - 35.6 °F 61% 30.07 in 10.0 mi NNE 6.9 mph - N/A   Clear
11:55 PM 48.2 °F - 36.1 °F 63% 30.06 in 10.0 mi NNE 4.6 mph - N/A   Clear